Weather Service Report


669 
ASUS45 KSLC 251910
RWRUT 

UTAH REGIONAL WEATHER ROUNDUP
NATIONAL WEATHER SERVICE SALT LAKE CITY UT
100 PM MDT SAT MAY 25 2019

UTZ001>011-023>025-252000-

NORTHERN UTAH
  
CITY           SKY/WX    TMP DP  RH WIND       PRES   REMARKS
BRIGHAM CITY   SUNNY     65  39  38 S8        29.88F                  
HILL AFB       MOSUNNY   65  36  34 S22G28    29.89S                  
LOGAN          MOSUNNY   63  45  51 NW6       29.88F                  
OGDEN          MOSUNNY   67  33  28 S20G36    29.87F                  
SALT LAKE CITY MOSUNNY   68  36  30 S25G31    29.86F                  
TOOELE VALLEY  MOSUNNY   68  37  32 S25       29.87F                  
WENDOVER       LGT RAIN  57  48  72 W25       29.89R                  
HEBER CITY     MOCLDY    59  32  36 SW10G24   29.92F                  
WEST JORDAN    MOSUNNY   65  42  41 SE21G26   29.90F                  

$$

UTZ011>015-024>027-252000-

CENTRAL/NORTHEAST UTAH
  
CITY           SKY/WX    TMP DP  RH WIND       PRES   REMARKS
PROVO AIRPORT  MOSUNNY   65  38  36 SE9       29.91F                  
MOAB/CANYONLAN SUNNY     70  31  23 VRB7      29.92F                  
DELTA          PTSUNNY   64  32  29 SW17G24   29.90F                  
PRICE          MOSUNNY   59  43  55 SE9       29.99F                  
RICHFIELD      PTSUNNY   64  34  32 SE2       29.90F                  
ROOSEVELT      CLOUDY    59  37  44 E3        30.01F                  
VERNAL         MOSUNNY   62  41  46 CALM      29.98F                  

$$

UTZ013>016-019>022-027-252000-

SOUTHERN UTAH
  
CITY           SKY/WX    TMP DP  RH WIND       PRES   REMARKS
BRYCE CANYON   MOSUNNY   53  31  42 SE13G24   30.05S                  
CEDAR CITY     MOSUNNY   64  35  34 SW17G26   29.93F                  
MILFORD        PTSUNNY   66  35  31 SW17G30   29.90F                  
ST GEORGE      MOCLDY    72  37  28 CALM      29.87F                  
HANKSVILLE     SUNNY     68  36  30 E7        29.96F                  
KANAB          SUNNY     66  30  26 S3G18     30.01R                  
BLANDING         N/A     64  24  22 S10G17    30.11F                  

$$

REGIONAL REPORTS     COLORADO/ARIZONA
  
CITY           SKY/WX    TMP DP  RH WIND       PRES   REMARKS
CRAIG, CO      PTSUNNY   64  32  30 W10       30.01F                  
GRAND JUNCTION SUNNY     71  29  21 SE7       29.95F                  
RIFLE, CO      SUNNY     68  30  24 W8        29.98F                  
MONTROSE, CO   SUNNY     69  26  20 W9G17     29.99F                  
CORTEZ, CO     SUNNY     68  25  19 SW14G28   30.04F                  
COLORADO CITY    N/A     68  32  26 S5        29.98F                  
PAGE, AZ       SUNNY     70  33  25 N9        29.93F                  
GRAND CANYON   SUNNY     60  21  22 S16G23    30.05S                  
KINGMAN, AZ    SUNNY     76  25  15 SW17G24   29.90S                  
FLAGSTAFF, AZ  SUNNY     59  24  26 S12G24    30.08S                  

$$

REGIONAL REPORTS    NEVADA/IDAHO/WYOMING
  
CITY           SKY/WX    TMP DP  RH WIND       PRES   REMARKS
LAS VEGAS, NV  MOSUNNY   79  33  19 S7        29.80F                  
ELY, NY        LGT RAIN  45  40  82 SW16G26   29.94R                  
ELKO, NV       PTSUNNY   51  42  71 SW9       29.90F                  
POCATELLO, ID  CLOUDY    61  44  53 VRB3      29.88F                  
BURLEY, ID     CLOUDY    58  47  66 E5        29.84F                  
FORT BRIDGER,  MOCLDY    57  30  35 NE3       30.02F                  
EVANSTON, WY   PTSUNNY   55  28  35 SW17G26   29.98F                  
ROCK SPRINGS,  PTSUNNY   57  29  34 S16G29    30.01F                  
KEMMERER, WY   MOSUNNY   54  32  43 E8G18     30.01F                  

$$
  

Return to Home page


Western Regional Climate Center, wrcc@dri.edu